Home > Weather > Olten > Past weeks

Flag for Switzerland Past Weather in Olten, Solothurn, Switzerland — Yesterday and Last 2 Weeks

Now
70 °F

Mild.


Feels Like: 71 °F
Forecast: 60 / 78 °F
Wind: 2 mph from South

Location: Wynau

Current Time: Jul 25, 2016 at 10:06:10 PM

Latest Report: Jul 25, 2016 at 9:00 PM


Visibility: N/A

Pressure: 30.08 "Hg

Humidity: 81%

Dew Point: 64 °F

Location of OltenLocation

Past Weather in Olten — Graph

°F

Olten Temperature Yesterday

Maximum temperature yesterday: 80 °F (at 4:00 PM)
Minimum temperature yesterday: 62 °F (at 5:00 AM)
Average temperature yesterday: 70 °F

High & Low Weather Summary for the Past Weeks

 TemperatureHumidityPressure
High90 °F (Jul 20, 5:00 PM)100% (Jul 15, 3:00 AM)30.37 "Hg (Jul 15, 3:00 AM)
Low46 °F (Jul 16, 6:00 AM)31% (Jul 19, 5:00 PM)29.87 "Hg (Jul 10, 9:00 PM)
Average66 °F79%30.08 "Hg
* Reported Jul 10 9:00 PM — Jul 25 9:00 PM, Olten, Weather by CustomWeather, © 2016

Note: Actual official high and low records may vary slightly from our data, if they occured in-between our weather recording intervals... More about our weather records

Advertising

Olten Weather History for the Previous 24 Hours

Scroll right to see more
 ConditionsComfort  
Time TempWeatherWind HumidityBarometerVisibility
9:00 PM
Mon, Jul 25
70 °FMild.2 mph81%30.08 "HgN/A
8:00 PM76 °FMild.3 mph61%30.06 "HgN/A
7:00 PM78 °FWarm.3 mph54%30.04 "HgN/A
6:00 PM78 °FWarm.5 mph58%30.03 "HgN/A
5:00 PM78 °FWarm.2 mph58%30.04 "HgN/A
4:00 PM78 °FWarm.2 mph59%30.04 "HgN/A
3:00 PM78 °FWarm.6 mph54%30.04 "HgN/A
2:00 PM79 °FWarm.5 mph55%30.04 "HgN/A
1:00 PM76 °FMild.3 mph60%30.06 "HgN/A
12:00 PM75 °FMild.3 mph66%30.07 "HgN/A
11:00 AM72 °FMild.2 mph71%30.09 "HgN/A
10:00 AM71 °FMild.1 mph79%30.09 "HgN/A
9:00 AM67 °FMild.1 mph87%30.11 "HgN/A
8:00 AM64 °FMild.1 mph93%30.11 "HgN/A
7:00 AM62 °FCool.No wind98%30.11 "HgN/A
6:00 AM61 °FCool.No wind98%30.11 "HgN/A
5:00 AM62 °FCool.2 mph99%30.11 "HgN/A
4:00 AM62 °FCool.No wind96%30.11 "HgN/A
3:00 AM63 °FMild.2 mph96%30.11 "HgN/A
2:00 AM66 °FMild.No wind88%30.11 "HgN/A
1:00 AM69 °FMild.1 mph77%30.10 "HgN/A
12:00 AM68 °FMild.2 mph81%30.11 "HgN/A
11:00 PM
Sun, Jul 24
69 °FMild.2 mph78%30.10 "HgN/A
10:00 PM72 °FMild.2 mph68%30.08 "HgN/A
Weather by CustomWeather, © 2016

See weather overviewHow to use our weather pages